Location: Białystok
(53.1343°N, 23.1544°E)
Time: 06:18:14
(UTC+02:00)

ISS - Visible Passes

Search period start: 20 September 2018 00:00
Search period end: 30 September 2018 00:00
Orbit: 402 x 408 km, 51.6° (Epoch: 20 September)

Date Brightness Start Highest point End Pass type
(mag) Time Alt. Az. Time Alt. Az. Time Alt. Az.
22 Sep -1.1 20:28:29 10° SSW 20:28:34 10° SSW 20:28:34 10° SSW visible
23 Sep -1.9 19:37:21 10° S 19:39:12 15° SE 19:39:12 15° SE visible
24 Sep -2.5 20:20:16 10° SW 20:22:20 27° SSW 20:22:20 27° SSW visible
25 Sep -2.5 19:28:40 10° SSW 19:31:25 24° SSE 19:32:36 20° ESE visible
25 Sep -1.4 21:04:17 10° WSW 21:05:17 18° WSW 21:05:17 18° WSW visible
26 Sep -3.5 20:12:22 10° WSW 20:15:26 49° S 20:15:26 49° S visible
27 Sep -3.1 19:20:31 10° SW 19:23:36 37° SSE 19:25:28 19° E visible
27 Sep -1.8 20:56:36 10° W 20:58:09 25° WSW 20:58:09 25° WSW visible
28 Sep -3.8 20:04:35 10° WSW 20:07:50 63° S 20:08:07 59° SE visible
29 Sep -3.5 19:12:35 10° WSW 19:15:49 53° SSE 19:18:02 18° E visible
29 Sep -2.0 20:48:54 10° W 20:50:42 29° W 20:50:42 29° W visible
